Location: Antioch Baptist Church
(32.6696°N, 85.7327°W)
Time: 11:34:26
(UTC+00:00)

Cosmos 1464 Rocket - Pass Details

Date: 14 July 2020
Orbit: 951 x 1002 km, 82.9° (Epoch: 08 August)

Event Time Altitude Azimuth Distance (km) Brightness Sun altitude
Exits shadow 08:58:16 26° 192° (SSW) 1,874 5.0 -19.4°
Maximum altitude 09:02:09 78° 276° (W) 1,024 4.0 -18.8°
Drops below altitude 10° 09:08:32 10° 3° (N) 2,771 7.0 -17.8°
Sets 09:11:04 0° 5° (N) 3,720 7.8 -17.4°
